Time,TemperatureF,DewpointF,PressureIn,WindDirection,WindDirectionDegrees,WindSpeedMPH,WindSpeedGustMPH,Humidity,HourlyPrecipIn,Conditions,Clouds,dailyrainin,SoftwareType,DateUTC
2017-08-21 00:04:00,59.2,53.0,30.25,WNW,298,0.0,0.0,80,0.00,,,0.00,WeatherCatV2.42B15,2017-08-20 22:04:00,
2017-08-21 00:09:00,59.1,52.9,30.25,WNW,298,0.0,1.0,80,0.00,,,0.00,WeatherCatV2.42B15,2017-08-20 22:09:00,
2017-08-21 00:14:00,58.9,53.1,30.25,WNW,298,0.0,1.0,81,0.00,,,0.00,WeatherCatV2.42B15,2017-08-20 22:14:00,
2017-08-21 00:19:00,58.8,53.3,30.25,WNW,298,0.0,0.0,82,0.00,,,0.00,WeatherCatV2.42B15,2017-08-20 22:19:00,
2017-08-21 00:24:00,58.6,53.1,30.25,WNW,298,0.0,0.0,82,0.00,,,0.00,WeatherCatV2.42B15,2017-08-20 22:24:00,
2017-08-21 00:29:00,58.5,53.0,30.25,WNW,298,0.0,0.0,82,0.00,,,0.00,WeatherCatV2.42B15,2017-08-20 22:29:00,
2017-08-21 00:34:00,58.5,53.3,30.25,WNW,298,0.0,0.0,83,0.00,,,0.00,WeatherCatV2.42B15,2017-08-20 22:34:00,
2017-08-21 00:39:00,58.5,53.0,30.25,WNW,298,0.0,0.0,82,0.00,,,0.00,WeatherCatV2.42B15,2017-08-20 22:39:00,
2017-08-21 00:44:00,58.3,52.8,30.25,WNW,298,0.0,0.0,82,0.00,,,0.00,WeatherCatV2.42B15,2017-08-20 22:44:00,
2017-08-21 00:49:00,58.2,53.1,30.24,WNW,298,0.0,0.0,83,0.00,,,0.00,WeatherCatV2.42B15,2017-08-20 22:49:00,
2017-08-21 00:54:00,58.1,53.0,30.24,WNW,298,0.0,1.0,83,0.00,,,0.00,WeatherCatV2.42B15,2017-08-20 22:54:00,
2017-08-21 00:59:00,57.9,53.1,30.24,WNW,298,0.0,1.0,84,0.00,,,0.00,WeatherCatV2.42B15,2017-08-20 22:59:00,
2017-08-21 01:04:00,57.7,52.9,30.25,WNW,298,0.0,0.0,84,0.00,,,0.00,WeatherCatV2.42B15,2017-08-20 23:04:00,
2017-08-21 01:09:00,57.7,52.9,30.24,WNW,298,0.0,0.0,84,0.00,,,0.00,WeatherCatV2.42B15,2017-08-20 23:09:00,
2017-08-21 01:15:00,57.5,52.7,30.25,WNW,298,0.0,0.0,84,0.00,,,0.00,WeatherCatV2.42B15,2017-08-20 23:15:00,
2017-08-21 01:20:00,57.5,52.7,30.24,WNW,298,0.0,0.0,84,0.00,,,0.00,WeatherCatV2.42B15,2017-08-20 23:20:00,
2017-08-21 01:25:00,57.5,52.7,30.24,WNW,298,0.0,1.0,84,0.00,,,0.00,WeatherCatV2.42B15,2017-08-20 23:25:00,
2017-08-21 01:30:00,57.5,52.7,30.24,WNW,298,0.0,0.0,84,0.00,,,0.00,WeatherCatV2.42B15,2017-08-20 23:30:00,
2017-08-21 01:35:00,57.3,52.8,30.25,WNW,298,0.0,0.0,85,0.00,,,0.00,WeatherCatV2.42B15,2017-08-20 23:35:00,
2017-08-21 01:39:00,57.2,52.7,30.25,WNW,298,0.0,2.0,85,0.00,,,0.00,WeatherCatV2.42B15,2017-08-20 23:39:00,
2017-08-21 01:44:00,57.1,52.6,30.24,WNW,298,0.0,1.0,85,0.00,,,0.00,WeatherCatV2.42B15,2017-08-20 23:44:00,
2017-08-21 01:49:00,57.1,52.6,30.24,WNW,298,0.0,0.0,85,0.00,,,0.00,WeatherCatV2.42B15,2017-08-20 23:49:00,
2017-08-21 01:54:00,57.0,52.5,30.25,WNW,298,0.0,1.0,85,0.00,,,0.00,WeatherCatV2.42B15,2017-08-20 23:54:00,
2017-08-21 02:00:00,57.0,52.5,30.25,WNW,298,0.0,0.0,85,0.00,,,0.00,WeatherCatV2.42B15,2017-08-21 00:00:00,
2017-08-21 02:05:00,56.9,52.4,30.25,WNW,298,0.0,0.0,85,0.00,,,0.00,WeatherCatV2.42B15,2017-08-21 00:05:00,
2017-08-21 02:10:00,56.9,52.4,30.24,WNW,298,0.0,0.0,85,0.00,,,0.00,WeatherCatV2.42B15,2017-08-21 00:10:00,
2017-08-21 02:15:00,56.9,52.4,30.24,WNW,298,0.0,0.0,85,0.00,,,0.00,WeatherCatV2.42B15,2017-08-21 00:15:00,
2017-08-21 02:20:00,56.9,52.4,30.24,WNW,298,0.0,2.0,85,0.00,,,0.00,WeatherCatV2.42B15,2017-08-21 00:20:00,
2017-08-21 02:25:00,56.8,52.3,30.24,WNW,298,0.0,2.0,85,0.00,,,0.00,WeatherCatV2.42B15,2017-08-21 00:25:00,
2017-08-21 02:30:00,56.7,52.2,30.24,WNW,298,0.0,2.0,85,0.00,,,0.00,WeatherCatV2.42B15,2017-08-21 00:30:00,
2017-08-21 02:35:00,56.6,52.5,30.24,WNW,298,2.0,2.0,86,0.00,,,0.00,WeatherCatV2.42B15,2017-08-21 00:35:00,
2017-08-21 02:40:00,56.6,52.5,30.24,WNW,298,0.0,2.0,86,0.00,,,0.00,WeatherCatV2.42B15,2017-08-21 00:40:00,
2017-08-21 02:45:00,56.6,52.5,30.24,WNW,298,0.0,0.0,86,0.00,,,0.00,WeatherCatV2.42B15,2017-08-21 00:45:00,
2017-08-21 02:50:00,56.6,52.5,30.24,WNW,298,0.0,0.0,86,0.00,,,0.00,WeatherCatV2.42B15,2017-08-21 00:50:00,
2017-08-21 02:55:00,56.6,52.5,30.24,WNW,298,0.0,1.0,86,0.00,,,0.00,WeatherCatV2.42B15,2017-08-21 00:55:00,
2017-08-21 03:00:00,56.5,52.4,30.24,WNW,298,0.0,0.0,86,0.00,,,0.00,WeatherCatV2.42B15,2017-08-21 01:00:00,
2017-08-21 03:05:00,56.4,52.3,30.24,WNW,298,0.0,0.0,86,0.00,,,0.00,WeatherCatV2.42B15,2017-08-21 01:05:00,
2017-08-21 03:10:00,56.4,52.3,30.24,WNW,298,0.0,1.0,86,0.00,,,0.00,WeatherCatV2.42B15,2017-08-21 01:10:00,
2017-08-21 03:15:00,56.4,52.3,30.24,WNW,298,0.0,0.0,86,0.00,,,0.00,WeatherCatV2.42B15,2017-08-21 01:15:00,
2017-08-21 03:20:00,56.4,51.9,30.24,WNW,298,0.0,1.0,85,0.00,,,0.00,WeatherCatV2.42B15,2017-08-21 01:20:00,
2017-08-21 03:25:00,56.3,51.8,30.23,WNW,298,0.0,1.0,85,0.00,,,0.00,WeatherCatV2.42B15,2017-08-21 01:25:00,
2017-08-21 03:30:00,56.3,51.8,30.23,WNW,298,0.0,0.0,85,0.00,,,0.00,WeatherCatV2.42B15,2017-08-21 01:30:00,
2017-08-21 03:35:00,56.3,51.8,30.24,WNW,298,0.0,0.0,85,0.00,,,0.00,WeatherCatV2.42B15,2017-08-21 01:35:00,
2017-08-21 03:40:00,56.3,51.8,30.24,WNW,298,0.0,0.0,85,0.00,,,0.00,WeatherCatV2.42B15,2017-08-21 01:40:00,
2017-08-21 03:45:00,56.2,51.8,30.24,WNW,298,0.0,0.0,85,0.00,,,0.00,WeatherCatV2.42B15,2017-08-21 01:45:00,
2017-08-21 03:50:00,56.2,51.8,30.24,WNW,298,0.0,0.0,85,0.00,,,0.00,WeatherCatV2.42B15,2017-08-21 01:50:00,
2017-08-21 03:55:00,56.1,51.7,30.23,WNW,298,0.0,0.0,85,0.00,,,0.00,WeatherCatV2.42B15,2017-08-21 01:55:00,
2017-08-21 04:00:00,56.1,51.7,30.23,WNW,298,0.0,0.0,85,0.00,,,0.00,WeatherCatV2.42B15,2017-08-21 02:00:00,
2017-08-21 04:05:00,56.0,51.5,30.23,WNW,298,0.0,0.0,85,0.00,,,0.00,WeatherCatV2.42B15,2017-08-21 02:05:00,
2017-08-21 04:10:00,56.0,51.9,30.24,WNW,298,0.0,0.0,86,0.00,,,0.00,WeatherCatV2.42B15,2017-08-21 02:10:00,
2017-08-21 04:15:00,55.9,51.8,30.24,WNW,298,0.0,0.0,86,0.00,,,0.00,WeatherCatV2.42B15,2017-08-21 02:15:00,
2017-08-21 04:20:00,55.8,51.7,30.24,WNW,298,0.0,0.0,86,0.00,,,0.00,WeatherCatV2.42B15,2017-08-21 02:20:00,
2017-08-21 04:25:00,55.7,51.6,30.24,WNW,298,0.0,0.0,86,0.00,,,0.00,WeatherCatV2.42B15,2017-08-21 02:25:00,
2017-08-21 04:30:00,55.6,51.5,30.24,WNW,298,0.0,0.0,86,0.00,,,0.00,WeatherCatV2.42B15,2017-08-21 02:30:00,
2017-08-21 04:35:00,55.5,51.4,30.24,WNW,298,0.0,0.0,86,0.00,,,0.00,WeatherCatV2.42B15,2017-08-21 02:35:00,
2017-08-21 04:40:00,55.3,51.5,30.24,WNW,298,0.0,0.0,87,0.00,,,0.00,WeatherCatV2.42B15,2017-08-21 02:40:00,
2017-08-21 04:45:00,55.2,51.4,30.24,WNW,298,0.0,0.0,87,0.00,,,0.00,WeatherCatV2.42B15,2017-08-21 02:45:00,
2017-08-21 04:50:00,55.1,51.3,30.24,WNW,298,0.0,0.0,87,0.00,,,0.00,WeatherCatV2.42B15,2017-08-21 02:50:00,
2017-08-21 04:55:00,55.0,51.2,30.23,WNW,298,0.0,0.0,87,0.00,,,0.00,WeatherCatV2.42B15,2017-08-21 02:55:00,
2017-08-21 05:00:00,54.9,51.1,30.23,WNW,298,0.0,0.0,87,0.00,,,0.00,WeatherCatV2.42B15,2017-08-21 03:00:00,
2017-08-21 05:05:00,54.8,51.0,30.24,WNW,298,0.0,0.0,87,0.00,,,0.00,WeatherCatV2.42B15,2017-08-21 03:05:00,
2017-08-21 05:11:00,54.8,51.0,30.23,WNW,298,0.0,0.0,87,0.00,,,0.00,WeatherCatV2.42B15,2017-08-21 03:11:00,
2017-08-21 05:16:00,54.8,51.0,30.23,WNW,298,0.0,0.0,87,0.00,,,0.00,WeatherCatV2.42B15,2017-08-21 03:16:00,
2017-08-21 05:21:00,54.7,50.9,30.23,WNW,298,0.0,0.0,87,0.00,,,0.00,WeatherCatV2.42B15,2017-08-21 03:21:00,
2017-08-21 05:26:00,54.6,50.8,30.23,WNW,298,0.0,0.0,87,0.00,,,0.00,WeatherCatV2.42B15,2017-08-21 03:26:00,
2017-08-21 05:31:00,54.5,51.0,30.24,WNW,298,0.0,0.0,88,0.00,,,0.00,WeatherCatV2.42B15,2017-08-21 03:31:00,
2017-08-21 05:36:00,54.2,50.7,30.23,WNW,298,0.0,0.0,88,0.00,,,0.00,WeatherCatV2.42B15,2017-08-21 03:36:00,
2017-08-21 05:41:00,54.1,50.6,30.23,WNW,298,0.0,0.0,88,0.00,,,0.00,WeatherCatV2.42B15,2017-08-21 03:41:00,
2017-08-21 05:46:00,54.1,50.6,30.23,WNW,298,0.0,0.0,88,0.00,,,0.00,WeatherCatV2.42B15,2017-08-21 03:46:00,
2017-08-21 05:51:00,54.0,50.5,30.23,WNW,298,0.0,0.0,88,0.00,,,0.00,WeatherCatV2.42B15,2017-08-21 03:51:00,
2017-08-21 05:56:00,53.9,50.4,30.23,WNW,298,0.0,0.0,88,0.00,,,0.00,WeatherCatV2.42B15,2017-08-21 03:56:00,
2017-08-21 06:01:00,53.8,50.3,30.24,WNW,298,0.0,0.0,88,0.00,,,0.00,WeatherCatV2.42B15,2017-08-21 04:01:00,
2017-08-21 06:06:00,53.7,50.2,30.23,WNW,298,0.0,0.0,88,0.00,,,0.00,WeatherCatV2.42B15,2017-08-21 04:06:00,
2017-08-21 06:11:00,53.6,50.1,30.23,WNW,298,0.0,0.0,88,0.00,,,0.00,WeatherCatV2.42B15,2017-08-21 04:11:00,
2017-08-21 06:16:00,53.6,50.1,30.23,WNW,298,0.0,0.0,88,0.00,,,0.00,WeatherCatV2.42B15,2017-08-21 04:16:00,
2017-08-21 06:21:00,53.6,50.4,30.23,WNW,298,0.0,0.0,89,0.00,,,0.00,WeatherCatV2.42B15,2017-08-21 04:21:00,
2017-08-21 06:26:00,53.5,50.3,30.23,WNW,298,0.0,0.0,89,0.00,,,0.00,WeatherCatV2.42B15,2017-08-21 04:26:00,
2017-08-21 06:31:00,53.4,50.2,30.23,WNW,298,0.0,0.0,89,0.00,,,0.00,WeatherCatV2.42B15,2017-08-21 04:31:00,
2017-08-21 06:36:00,53.4,50.2,30.23,WNW,298,0.0,0.0,89,0.00,,,0.00,WeatherCatV2.42B15,2017-08-21 04:36:00,
2017-08-21 06:41:00,53.3,50.1,30.23,WNW,298,0.0,0.0,89,0.00,,,0.00,WeatherCatV2.42B15,2017-08-21 04:41:00,
2017-08-21 06:46:00,53.2,50.0,30.23,WNW,298,0.0,0.0,89,0.00,,,0.00,WeatherCatV2.42B15,2017-08-21 04:46:00,
2017-08-21 06:51:00,53.1,49.9,30.23,WNW,298,0.0,0.0,89,0.00,,,0.00,WeatherCatV2.42B15,2017-08-21 04:51:00,
2017-08-21 06:56:00,53.0,49.8,30.23,WNW,298,0.0,0.0,89,0.00,,,0.00,WeatherCatV2.42B15,2017-08-21 04:56:00,
2017-08-21 07:01:00,53.0,49.8,30.23,WNW,298,0.0,0.0,89,0.00,,,0.00,WeatherCatV2.42B15,2017-08-21 05:01:00,
2017-08-21 07:06:00,52.9,49.8,30.23,WNW,298,0.0,0.0,89,0.00,,,0.00,WeatherCatV2.42B15,2017-08-21 05:06:00,
2017-08-21 07:11:00,53.0,50.1,30.23,WNW,298,0.0,0.0,90,0.00,,,0.00,WeatherCatV2.42B15,2017-08-21 05:11:00,
2017-08-21 07:16:00,53.0,50.1,30.23,WNW,298,0.0,0.0,90,0.00,,,0.00,WeatherCatV2.42B15,2017-08-21 05:16:00,
2017-08-21 07:21:00,52.9,50.0,30.23,WNW,298,0.0,0.0,90,0.00,,,0.00,WeatherCatV2.42B15,2017-08-21 05:21:00,
2017-08-21 07:26:00,52.9,50.0,30.23,WNW,298,0.0,0.0,90,0.00,,,0.00,WeatherCatV2.42B15,2017-08-21 05:26:00,
2017-08-21 07:31:00,53.1,50.5,30.23,WNW,298,0.0,0.0,91,0.00,,,0.00,WeatherCatV2.42B15,2017-08-21 05:31:00,
2017-08-21 07:36:00,53.2,50.6,30.23,WNW,298,0.0,0.0,91,0.00,,,0.00,WeatherCatV2.42B15,2017-08-21 05:36:00,
2017-08-21 07:41:00,53.2,50.6,30.24,WNW,298,0.0,0.0,91,0.00,,,0.00,WeatherCatV2.42B15,2017-08-21 05:41:00,
2017-08-21 07:46:00,53.3,50.7,30.23,WNW,298,0.0,0.0,91,0.00,,,0.00,WeatherCatV2.42B15,2017-08-21 05:46:00,
2017-08-21 07:51:00,53.5,50.6,30.24,WNW,298,0.0,0.0,90,0.00,,,0.00,WeatherCatV2.42B15,2017-08-21 05:51:00,
2017-08-21 07:56:00,53.6,50.7,30.24,WNW,298,0.0,0.0,90,0.00,,,0.00,WeatherCatV2.42B15,2017-08-21 05:56:00,
2017-08-21 08:01:00,53.7,51.1,30.24,WNW,298,0.0,0.0,91,0.00,,,0.00,WeatherCatV2.42B15,2017-08-21 06:01:00,
2017-08-21 08:06:00,53.9,51.0,30.23,WNW,298,0.0,0.0,90,0.00,,,0.00,WeatherCatV2.42B15,2017-08-21 06:06:00,
2017-08-21 08:11:00,54.1,51.2,30.24,WNW,298,0.0,0.0,90,0.00,,,0.00,WeatherCatV2.42B15,2017-08-21 06:11:00,
2017-08-21 08:16:00,54.4,51.5,30.24,WNW,298,0.0,2.0,90,0.00,,,0.00,WeatherCatV2.42B15,2017-08-21 06:16:00,
2017-08-21 08:21:00,54.6,51.7,30.23,WNW,298,1.0,2.0,90,0.00,,,0.00,WeatherCatV2.42B15,2017-08-21 06:21:00,
2017-08-21 08:22:00,54.7,51.8,30.23,WNW,293,0.0,3.0,90,0.00,,,0.00,WeatherCatV2.42B15,2017-08-21 06:22:00,
2017-08-21 08:27:00,55.2,52.0,30.23,WSW,247,0.0,2.0,89,0.00,,,0.00,WeatherCatV2.42B15,2017-08-21 06:27:00,
2017-08-21 08:32:00,55.7,52.2,30.24,SW,223,0.0,1.0,88,0.00,,,0.00,WeatherCatV2.42B15,2017-08-21 06:32:00,
2017-08-21 08:33:00,55.9,52.4,30.24,SW,223,0.0,1.0,88,0.00,,,0.00,WeatherCatV2.42B15,2017-08-21 06:33:00,
2017-08-21 08:38:00,56.2,52.4,30.24,SW,223,1.0,2.0,87,0.00,,,0.00,WeatherCatV2.42B15,2017-08-21 06:38:00,
2017-08-21 08:43:00,56.5,52.0,30.24,SW,223,0.0,1.0,85,0.00,,,0.00,WeatherCatV2.42B15,2017-08-21 06:43:00,
2017-08-21 08:48:00,56.9,52.1,30.24,SW,223,2.0,3.0,84,0.00,,,0.00,WeatherCatV2.42B15,2017-08-21 06:48:00,
2017-08-21 08:53:00,57.3,52.2,30.24,SW,223,0.0,0.0,83,0.00,,,0.00,WeatherCatV2.42B15,2017-08-21 06:53:00,
2017-08-21 08:58:00,57.5,52.0,30.24,SW,223,0.0,0.0,82,0.00,,,0.00,WeatherCatV2.42B15,2017-08-21 06:58:00,
2017-08-21 09:03:00,57.7,52.2,30.24,SW,223,0.0,1.0,82,0.00,,,0.00,WeatherCatV2.42B15,2017-08-21 07:03:00,
2017-08-21 09:08:00,58.0,52.2,30.24,SW,223,0.0,1.0,81,0.00,,,0.00,WeatherCatV2.42B15,2017-08-21 07:08:00,
2017-08-21 09:13:00,58.4,52.6,30.25,SW,223,0.0,0.0,81,0.00,,,0.00,WeatherCatV2.42B15,2017-08-21 07:13:00,
2017-08-21 09:18:00,58.7,52.2,30.25,SW,223,2.0,2.0,79,0.00,,,0.00,WeatherCatV2.42B15,2017-08-21 07:18:00,
2017-08-21 09:23:00,59.3,52.4,30.25,SW,223,1.0,2.0,78,0.00,,,0.00,WeatherCatV2.42B15,2017-08-21 07:23:00,
2017-08-21 09:28:00,59.8,52.6,30.25,SW,221,0.0,2.0,77,0.00,,,0.00,WeatherCatV2.42B15,2017-08-21 07:28:00,
2017-08-21 09:33:00,60.4,52.8,30.24,SSW,198,2.0,4.0,76,0.00,,,0.00,WeatherCatV2.42B15,2017-08-21 07:33:00,
2017-08-21 09:38:00,60.7,52.7,30.24,SSW,197,2.0,4.0,75,0.00,,,0.00,WeatherCatV2.42B15,2017-08-21 07:38:00,
2017-08-21 09:43:00,61.3,52.6,30.25,SSW,197,3.0,3.0,73,0.00,,,0.00,WeatherCatV2.42B15,2017-08-21 07:43:00,
2017-08-21 09:48:00,61.6,52.5,30.25,SSW,196,2.0,4.0,72,0.00,,,0.00,WeatherCatV2.42B15,2017-08-21 07:48:00,
2017-08-21 09:53:00,62.1,52.6,30.25,SSW,195,3.0,6.0,71,0.00,,,0.00,WeatherCatV2.42B15,2017-08-21 07:53:00,
2017-08-21 09:58:00,62.4,52.1,30.25,South,178,3.0,5.0,69,0.00,,,0.00,WeatherCatV2.42B15,2017-08-21 07:58:00,
2017-08-21 10:03:00,62.9,52.2,30.25,SSE,159,3.0,5.0,68,0.00,,,0.00,WeatherCatV2.42B15,2017-08-21 08:03:00,
2017-08-21 10:08:00,63.2,52.0,30.25,SSE,153,3.0,5.0,67,0.00,,,0.00,WeatherCatV2.42B15,2017-08-21 08:08:00,
2017-08-21 10:13:00,63.5,51.5,30.25,South,172,5.0,5.0,65,0.00,,,0.00,WeatherCatV2.42B15,2017-08-21 08:13:00,
2017-08-21 10:18:00,63.6,51.6,30.25,SE,132,4.0,7.0,65,0.00,,,0.00,WeatherCatV2.42B15,2017-08-21 08:18:00,
2017-08-21 10:23:00,63.9,52.3,30.25,SSE,158,5.0,6.0,66,0.00,,,0.00,WeatherCatV2.42B15,2017-08-21 08:23:00,
2017-08-21 10:28:00,64.4,52.0,30.25,South,186,2.0,6.0,64,0.00,,,0.00,WeatherCatV2.42B15,2017-08-21 08:28:00,
2017-08-21 10:33:00,64.6,51.7,30.25,SSE,159,4.0,6.0,63,0.00,,,0.00,WeatherCatV2.42B15,2017-08-21 08:33:00,
2017-08-21 10:38:00,64.9,52.0,30.25,South,188,3.0,8.0,63,0.00,,,0.00,WeatherCatV2.42B15,2017-08-21 08:38:00,
2017-08-21 10:43:00,65.1,52.2,30.24,SSW,201,3.0,7.0,63,0.00,,,0.00,WeatherCatV2.42B15,2017-08-21 08:43:00,
2017-08-21 10:48:00,65.2,51.8,30.25,SSW,199,3.0,6.0,62,0.00,,,0.00,WeatherCatV2.42B15,2017-08-21 08:48:00,
2017-08-21 10:53:00,65.5,52.1,30.25,SW,217,3.0,6.0,62,0.00,,,0.00,WeatherCatV2.42B15,2017-08-21 08:53:00,
2017-08-21 10:58:00,65.7,51.9,30.24,SSE,168,7.0,9.0,61,0.00,,,0.00,WeatherCatV2.42B15,2017-08-21 08:58:00,
2017-08-21 11:04:00,65.9,52.5,30.25,SSW,199,2.0,8.0,62,0.00,,,0.00,WeatherCatV2.42B15,2017-08-21 09:04:00,
2017-08-21 11:09:00,66.3,52.0,30.24,SSW,192,6.0,9.0,60,0.00,,,0.00,WeatherCatV2.42B15,2017-08-21 09:09:00,
2017-08-21 11:14:00,66.1,52.2,30.24,South,170,2.0,6.0,61,0.00,,,0.00,WeatherCatV2.42B15,2017-08-21 09:14:00,
2017-08-21 11:19:00,66.9,52.5,30.25,SSE,167,2.0,8.0,60,0.00,,,0.00,WeatherCatV2.42B15,2017-08-21 09:19:00,
2017-08-21 11:24:00,66.8,52.5,30.24,SSW,198,4.0,8.0,60,0.00,,,0.00,WeatherCatV2.42B15,2017-08-21 09:24:00,
2017-08-21 11:29:00,66.9,52.5,30.24,South,184,4.0,11.0,60,0.00,,,0.00,WeatherCatV2.42B15,2017-08-21 09:29:00,
2017-08-21 11:34:00,67.0,52.2,30.24,South,171,4.0,10.0,59,0.00,,,0.00,WeatherCatV2.42B15,2017-08-21 09:34:00,